Location: Hysolar-Haus
(48.7436°N, 9.0965°E)
Time: 00:05:10
(UTC+00:00)

ISS - Visible Passes

Search period start: 15 November 2019 00:00
Search period end: 25 November 2019 00:00
Orbit: 412 x 421 km, 51.6° (Epoch: 15 November)

Date Brightness Start Highest point End Pass type
(mag) Time Alt. Az. Time Alt. Az. Time Alt. Az.
21 Nov -0.8 18:15:52 10° SSW 18:16:01 11° SSW 18:16:01 11° SSW visible
22 Nov -1.8 17:28:04 10° S 17:29:50 18° SSE 17:29:50 18° SSE visible
23 Nov -1.5 16:40:47 10° SSE 16:42:18 13° SE 16:43:34 11° ESE visible
23 Nov -1.4 18:15:10 10° SW 18:16:29 22° SW 18:16:29 22° SW visible
24 Nov -3.1 17:26:56 10° SW 17:30:06 41° SSE 17:30:08 40° SE visible
